EWG4TP EKBI-EDDG

Flight info

Callsign EWG4TP
Flight time 0h 53m
Altitude 38000
Route ALS M852 EKERN N125 ELSOB Y348 MAWEQ DCT OSN DCT HMM HMM1A
Aircraft A319/M-SDE3FGHIRWY/LB1

Departure

Time 2026-05-07 12:56
Airport Billund Airport (EKBI)

Arrival

Time 2026-05-07 13:49
Airport Münster Osnabrück Airport (EDDG)
Time Latitude Longitude Altitude Speed Heading
2026-05-07 12:36 55.74534 9.14749 216 ft 0 kts 357°
2026-05-07 12:48 55.74533 9.14749 216 ft 1 kts 357°
2026-05-07 12:49 55.74510 9.14751 217 ft 4 kts
2026-05-07 12:49 55.74483 9.14749 222 ft 4 kts
2026-05-07 12:49 55.74459 9.14738 218 ft 4 kts 33°
2026-05-07 12:49 55.74447 9.14714 223 ft 1 kts 86°
2026-05-07 12:50 55.74447 9.14713 223 ft 0 kts 86°
2026-05-07 12:51 55.74447 9.14724 221 ft 6 kts 86°
2026-05-07 12:52 55.74452 9.14878 216 ft 14 kts 86°
2026-05-07 12:52 55.74379 9.14982 225 ft 18 kts 178°
2026-05-07 12:52 55.74268 9.14992 216 ft 3 kts 177°
2026-05-07 12:52 55.74215 9.15008 221 ft 12 kts 153°
2026-05-07 12:53 55.74201 9.15176 216 ft 18 kts 86°
2026-05-07 12:53 55.74210 9.15472 216 ft 30 kts 86°
2026-05-07 12:53 55.74225 9.15918 216 ft 42 kts 86°
2026-05-07 12:53 55.74239 9.16418 216 ft 32 kts 86°
2026-05-07 12:54 55.74252 9.16842 223 ft 36 kts 86°
2026-05-07 12:54 55.74267 9.17313 216 ft 40 kts 86°
2026-05-07 12:54 55.74284 9.17829 216 ft 44 kts 87°
2026-05-07 12:54 55.74214 9.18149 218 ft 28 kts 173°
2026-05-07 12:55 55.74122 9.18059 216 ft 16 kts 263°
2026-05-07 12:55 55.74107 9.17548 222 ft 71 kts 266°
2026-05-07 12:55 55.74070 9.16310 217 ft 128 kts 267°
2026-05-07 12:55 55.74019 9.14546 527 ft 152 kts 266°
2026-05-07 12:56 55.74069 9.12499 901 ft 183 kts 285°
2026-05-07 12:56 55.74767 9.10435 1348 ft 209 kts 303°
2026-05-07 12:56 55.75679 9.08244 2016 ft 228 kts 305°
2026-05-07 12:56 55.76650 9.05964 3016 ft 233 kts 306°
2026-05-07 12:57 55.77630 9.03667 4060 ft 237 kts 305°
2026-05-07 12:57 55.78644 9.01269 4836 ft 256 kts 305°
2026-05-07 12:57 55.79437 8.98394 5100 ft 265 kts 277°
2026-05-07 12:57 55.79103 8.95210 5993 ft 267 kts 239°
2026-05-07 12:58 55.77775 8.92950 7041 ft 270 kts 205°
2026-05-07 12:58 55.76573 8.92361 7678 ft 274 kts 183°
2026-05-07 12:58 55.74711 8.93114 8660 ft 279 kts 150°
2026-05-07 12:58 55.73156 8.95205 9689 ft 282 kts 136°
2026-05-07 12:59 55.71757 8.97668 10510 ft 294 kts 134°
2026-05-07 12:59 55.70270 9.00360 10895 ft 317 kts 134°
2026-05-07 12:59 55.68663 9.03258 11264 ft 338 kts 136°
2026-05-07 12:59 55.66836 9.06015 11969 ft 347 kts 142°
2026-05-07 13:00 55.64896 9.08515 12741 ft 352 kts 146°
2026-05-07 13:00 55.62852 9.10962 13507 ft 357 kts 147°
2026-05-07 13:00 55.60755 9.13424 14237 ft 363 kts 147°
2026-05-07 13:00 55.58640 9.15932 14966 ft 366 kts 147°
2026-05-07 13:01 55.56549 9.18463 15671 ft 370 kts 146°
2026-05-07 13:01 55.54420 9.21086 16379 ft 375 kts 146°
2026-05-07 13:01 55.52270 9.23762 17085 ft 379 kts 146°
2026-05-07 13:01 55.50100 9.26474 17787 ft 383 kts 146°
2026-05-07 13:02 55.47911 9.29208 18470 ft 388 kts 146°
2026-05-07 13:02 55.45693 9.31973 19077 ft 392 kts 146°
2026-05-07 13:02 55.43479 9.34732 19696 ft 396 kts 146°
2026-05-07 13:02 55.41224 9.37541 20329 ft 399 kts 146°
2026-05-07 13:03 55.38942 9.40373 20955 ft 403 kts 146°
2026-05-07 13:03 55.36634 9.43225 21559 ft 406 kts 146°
2026-05-07 13:03 55.34329 9.46066 22124 ft 410 kts 146°
2026-05-07 13:03 55.31980 9.48950 22693 ft 413 kts 146°
2026-05-07 13:04 55.29615 9.51853 23252 ft 417 kts 146°
2026-05-07 13:04 55.27235 9.54772 23776 ft 420 kts 146°
2026-05-07 13:04 55.24824 9.57728 24232 ft 423 kts 146°
2026-05-07 13:04 55.22397 9.60706 24690 ft 426 kts 146°
2026-05-07 13:05 55.19965 9.63689 25141 ft 429 kts 146°
2026-05-07 13:05 55.17515 9.66690 25600 ft 431 kts 146°
2026-05-07 13:05 55.15049 9.69701 26055 ft 434 kts 146°
2026-05-07 13:05 55.12594 9.72688 26498 ft 437 kts 145°
2026-05-07 13:06 55.10087 9.75736 26961 ft 439 kts 145°
2026-05-07 13:06 55.07562 9.78805 27390 ft 442 kts 145°
2026-05-07 13:06 55.05027 9.81880 27847 ft 444 kts 145°
2026-05-07 13:06 55.02472 9.84967 28287 ft 447 kts 145°
2026-05-07 13:07 54.99935 9.88021 28713 ft 449 kts 144°
2026-05-07 13:07 54.97358 9.91118 29149 ft 451 kts 144°
2026-05-07 13:07 54.94655 9.93947 29551 ft 454 kts 153°
2026-05-07 13:07 54.91705 9.95981 29943 ft 458 kts 163°
2026-05-07 13:08 54.88573 9.97132 30298 ft 461 kts 173°
2026-05-07 13:08 54.85352 9.97323 30610 ft 464 kts 183°
2026-05-07 13:08 54.82190 9.96602 30969 ft 465 kts 191°
2026-05-07 13:08 54.79013 9.95550 31427 ft 464 kts 190°
2026-05-07 13:09 54.75843 9.94514 31887 ft 463 kts 190°
2026-05-07 13:09 54.72660 9.93480 32343 ft 462 kts 190°
2026-05-07 13:09 54.69498 9.92459 32796 ft 462 kts 190°
2026-05-07 13:09 54.66371 9.91444 33253 ft 461 kts 190°
2026-05-07 13:10 54.63219 9.90416 33717 ft 460 kts 190°
2026-05-07 13:10 54.60073 9.89397 34177 ft 460 kts 191°
2026-05-07 13:10 54.56925 9.88385 34578 ft 459 kts 191°
2026-05-07 13:10 54.53782 9.87383 34987 ft 458 kts 191°
2026-05-07 13:11 54.50654 9.86390 35441 ft 455 kts 191°
2026-05-07 13:11 54.47577 9.85417 35890 ft 453 kts 191°
2026-05-07 13:11 54.44484 9.84438 36316 ft 451 kts 191°
2026-05-07 13:11 54.41406 9.83460 36744 ft 449 kts 191°
2026-05-07 13:12 54.38341 9.82478 37106 ft 447 kts 192°
2026-05-07 13:12 54.35274 9.81492 37460 ft 447 kts 192°
2026-05-07 13:12 54.32211 9.80511 37845 ft 445 kts 192°
2026-05-07 13:12 54.29199 9.79549 38052 ft 445 kts 191°
2026-05-07 13:13 54.23137 9.77617 38085 ft 441 kts 192°
2026-05-07 13:13 54.17116 9.75594 38085 ft 440 kts 192°
2026-05-07 13:14 54.11148 9.73509 38082 ft 440 kts 193°
2026-05-07 13:14 54.05152 9.71419 38078 ft 439 kts 193°
2026-05-07 13:15 53.99164 9.69374 38076 ft 439 kts 192°
2026-05-07 13:15 53.93160 9.67343 38084 ft 439 kts 192°
2026-05-07 13:16 53.87193 9.65326 38082 ft 439 kts 192°
2026-05-07 13:16 53.81195 9.63305 38085 ft 439 kts 192°
2026-05-07 13:17 53.75200 9.61273 38080 ft 439 kts 192°
2026-05-07 13:17 53.69239 9.59273 38083 ft 439 kts 192°
2026-05-07 13:18 53.63391 9.56372 38082 ft 437 kts 206°
2026-05-07 13:18 53.57990 9.51798 38072 ft 437 kts 207°
2026-05-07 13:19 53.52538 9.47204 38069 ft 438 kts 207°
2026-05-07 13:19 53.46910 9.43316 38065 ft 438 kts 197°
2026-05-07 13:20 53.41073 9.40324 38058 ft 438 kts 198°
2026-05-07 13:20 53.35263 9.37341 38053 ft 439 kts 198°
2026-05-07 13:21 53.29405 9.34347 38057 ft 439 kts 198°
2026-05-07 13:21 53.23588 9.31378 38064 ft 440 kts 198°
2026-05-07 13:22 53.17689 9.28368 38073 ft 440 kts 198°
2026-05-07 13:22 53.11861 9.25407 38078 ft 440 kts 197°
2026-05-07 13:23 53.05980 9.22422 38079 ft 441 kts 198°
2026-05-07 13:23 53.00134 9.19472 38082 ft 440 kts 197°
2026-05-07 13:24 52.94323 9.16211 38077 ft 439 kts 206°
2026-05-07 13:24 52.88933 9.11510 38079 ft 439 kts 208°
2026-05-07 13:25 52.83517 9.06769 38069 ft 440 kts 208°
2026-05-07 13:25 52.78134 9.02065 38065 ft 440 kts 208°
2026-05-07 13:26 52.72696 8.97332 38062 ft 440 kts 208°
2026-05-07 13:26 52.67299 8.92650 38008 ft 441 kts 208°
2026-05-07 13:27 52.64584 8.90291 37729 ft 441 kts 208°
2026-05-07 13:27 52.61872 8.87931 37460 ft 441 kts 208°
2026-05-07 13:27 52.59155 8.85574 37200 ft 441 kts 208°
2026-05-07 13:27 52.56428 8.83220 36936 ft 441 kts 208°
2026-05-07 13:28 52.53707 8.80878 36675 ft 442 kts 208°
2026-05-07 13:28 52.51007 8.78556 36422 ft 442 kts 208°
2026-05-07 13:28 52.48281 8.76208 36172 ft 442 kts 208°
2026-05-07 13:28 52.45554 8.73861 35920 ft 443 kts 208°
2026-05-07 13:29 52.42809 8.71503 35675 ft 444 kts 208°
2026-05-07 13:29 52.40069 8.69153 35260 ft 445 kts 208°
2026-05-07 13:29 52.37337 8.66815 34408 ft 452 kts 208°
2026-05-07 13:29 52.34538 8.64427 33476 ft 456 kts 208°
2026-05-07 13:30 52.31750 8.61852 32404 ft 461 kts 214°
2026-05-07 13:30 52.29238 8.58590 31386 ft 463 kts 224°
2026-05-07 13:30 52.27095 8.54645 30341 ft 465 kts 234°
2026-05-07 13:30 52.25414 8.50146 29406 ft 462 kts 244°
2026-05-07 13:31 52.24151 8.45309 28311 ft 461 kts 248°
2026-05-07 13:31 52.22974 8.40518 27434 ft 457 kts 248°
2026-05-07 13:31 52.21788 8.35710 26715 ft 449 kts 248°
2026-05-07 13:31 52.20528 8.31078 25979 ft 442 kts 242°
2026-05-07 13:32 52.18904 8.26934 25277 ft 436 kts 232°
2026-05-07 13:32 52.16915 8.23261 24568 ft 430 kts 226°
2026-05-07 13:32 52.14848 8.19778 23868 ft 425 kts 226°
2026-05-07 13:32 52.12808 8.16333 23116 ft 420 kts 226°
2026-05-07 13:33 52.10800 8.12935 22458 ft 412 kts 226°
2026-05-07 13:33 52.08827 8.09596 21804 ft 405 kts 226°
2026-05-07 13:33 52.06906 8.06349 21197 ft 398 kts 226°
2026-05-07 13:33 52.04996 8.03128 20603 ft 393 kts 226°
2026-05-07 13:34 52.03105 7.99944 20030 ft 388 kts 226°
2026-05-07 13:34 51.99351 7.93651 17309 ft 396 kts 227°
2026-05-07 13:34 51.97413 7.90404 15544 ft 403 kts 227°
2026-05-07 13:35 51.95456 7.87118 14115 ft 402 kts 227°
2026-05-07 13:35 51.93515 7.83872 12700 ft 397 kts 227°
2026-05-07 13:35 51.91601 7.80683 11370 ft 390 kts 226°
2026-05-07 13:35 51.89741 7.77557 10061 ft 382 kts 229°
2026-05-07 13:36 51.88257 7.74086 8656 ft 374 kts 243°
2026-05-07 13:36 51.87353 7.70177 7298 ft 366 kts 258°
2026-05-07 13:36 51.87058 7.66135 5965 ft 358 kts 271°
2026-05-07 13:36 51.87086 7.64921 5556 ft 355 kts 275°
2026-05-07 13:37 51.87388 7.62147 4861 ft 344 kts 287°
2026-05-07 13:37 51.88065 7.58585 4359 ft 319 kts 289°
2026-05-07 13:38 51.88682 7.55287 4155 ft 291 kts 288°
2026-05-07 13:38 51.89235 7.52260 4025 ft 268 kts 288°
2026-05-07 13:38 51.89755 7.49417 3989 ft 261 kts 288°
2026-05-07 13:38 51.90270 7.46628 3994 ft 261 kts 288°
2026-05-07 13:39 51.90792 7.43816 3993 ft 260 kts 289°
2026-05-07 13:39 51.91315 7.41016 3984 ft 259 kts 289°
2026-05-07 13:39 51.91840 7.38213 3985 ft 261 kts 288°
2026-05-07 13:39 51.92366 7.35396 3985 ft 261 kts 289°
2026-05-07 13:40 51.92886 7.32590 3977 ft 261 kts 288°
2026-05-07 13:40 51.93407 7.29761 3981 ft 262 kts 288°
2026-05-07 13:40 51.93921 7.26969 3980 ft 261 kts 288°
2026-05-07 13:40 51.94447 7.24131 3981 ft 262 kts 288°
2026-05-07 13:41 51.95048 7.21349 3970 ft 260 kts 299°
2026-05-07 13:41 51.96154 7.19070 3971 ft 258 kts 322°
2026-05-07 13:41 51.97736 7.17727 3974 ft 257 kts 345°
2026-05-07 13:41 51.99474 7.17443 3974 ft 254 kts
2026-05-07 13:42 52.01168 7.18180 3971 ft 252 kts 26°
2026-05-07 13:42 52.02520 7.19742 3968 ft 225 kts 45°
2026-05-07 13:42 52.03398 7.21702 3976 ft 209 kts 61°
2026-05-07 13:42 52.03925 7.23880 3974 ft 206 kts 69°
2026-05-07 13:43 52.04400 7.26082 3973 ft 206 kts 69°
2026-05-07 13:43 52.04869 7.28252 3983 ft 207 kts 69°
2026-05-07 13:43 52.05346 7.30465 3982 ft 207 kts 69°
2026-05-07 13:43 52.05824 7.32684 3987 ft 206 kts 69°
2026-05-07 13:44 52.06297 7.34881 3983 ft 205 kts 70°
2026-05-07 13:44 52.06770 7.37079 3942 ft 207 kts 69°
2026-05-07 13:44 52.07236 7.39254 3736 ft 206 kts 69°
2026-05-07 13:44 52.07700 7.41417 3490 ft 196 kts 69°
2026-05-07 13:45 52.08136 7.43455 3229 ft 186 kts 69°
2026-05-07 13:45 52.08558 7.45423 2976 ft 182 kts 70°
2026-05-07 13:45 52.08973 7.47359 2727 ft 179 kts 69°
2026-05-07 13:45 52.09381 7.49268 2488 ft 177 kts 70°
2026-05-07 13:46 52.09780 7.51138 2264 ft 178 kts 70°
2026-05-07 13:46 52.10184 7.53035 2022 ft 176 kts 70°
2026-05-07 13:46 52.10587 7.54925 1776 ft 175 kts 70°
2026-05-07 13:46 52.10961 7.56683 1555 ft 150 kts 70°
2026-05-07 13:47 52.11276 7.58165 1355 ft 130 kts 70°
2026-05-07 13:47 52.11559 7.59495 1182 ft 121 kts 70°
2026-05-07 13:47 52.11835 7.60790 1015 ft 121 kts 70°
2026-05-07 13:47 52.12106 7.62068 846 ft 118 kts 69°
2026-05-07 13:48 52.12375 7.63341 686 ft 118 kts 70°
2026-05-07 13:48 52.12633 7.64592 564 ft 117 kts 69°
2026-05-07 13:48 52.12901 7.65839 369 ft 117 kts 69°
2026-05-07 13:48 52.13169 7.67087 201 ft 116 kts 70°
2026-05-07 13:49 52.13407 7.68213 168 ft 73 kts 71°
2026-05-07 13:49 52.13484 7.68577 167 ft 31 kts 71°
2026-05-07 13:49 52.13558 7.68926 168 ft 36 kts 71°
2026-05-07 13:49 52.13649 7.69353 169 ft 44 kts 71°
2026-05-07 13:50 52.13745 7.69804 168 ft 31 kts 71°
2026-05-07 13:50 52.13707 7.70022 168 ft 24 kts 164°
2026-05-07 13:50 52.13560 7.69769 168 ft 29 kts 251°
2026-05-07 13:50 52.13513 7.69540 168 ft 33 kts 251°
2026-05-07 13:51 52.13449 7.69260 168 ft 19 kts 231°
2026-05-07 13:51 52.13350 7.69192 168 ft 18 kts 248°
2026-05-07 13:51 52.13274 7.69111 168 ft 16 kts 165°
2026-05-07 13:51 52.13166 7.69116 168 ft 17 kts 202°
2026-05-07 13:52 52.13109 7.69086 168 ft 3 kts 199°
2026-05-07 13:52 52.13099 7.69080 168 ft 0 kts 198°